Location: Gwatt
(46.7204°N, 7.6223°E)
Time: 18:21:55
(UTC+00:00)

Courier 1B Rocket - Pass Details

Date: 26 January 2021
Orbit: 920 x 1202 km, 28.3° (Epoch: 05 March)

Event Time Altitude Azimuth Distance (km) Brightness Sun altitude
Rises 09:19:08 0° 245° (WSW) 3,829 8.0 17.2°
Reaches altitude 10° 09:23:46 10° 218° (SW) 2,942 7.8 17.6°
Maximum altitude 09:26:32 12° 195° (SSW) 2,795 8.1 17.9°
Drops below altitude 10° 09:29:23 10° 172° (S) 3,017 9.0 18.1°
Sets 09:34:17 0° 146° (SE) 4,030 9.9 18.6°
